contact:dominique.lefevre@mio.osupytheas.fr, maurice.libes@osupytheas.fr, didier.mallarino@osupytheas.fr
Project:EMSO http://www.emso-fr.org/EMSO-France
Depth: 2436.0 m
Title:EMSO Ligure Ouest : Data MII capteur CSTAR
DateTime,Latitude,Longitude,Instrument_Serial,Reference_Counts,Signal_Counts,Corrected_Signal_raw_counts,Calculated_Beam_c_inverse_meters,Internal_thermistor_counts
DateTime,Latitude,Longitude,Instrument_Serial,Reference_Counts,Signal_Counts,Corrected_Signal_raw_counts,Calculated_Beam_c_inverse_meters,Internal_thermistor_counts
2019-09-22T00:00:20,42.805,6.029,CST-1368DR,7925,11100,15386,0.059,551
2019-09-22T00:03:22,42.805,6.029,CST-1368DR,7925,11099,15384,0.060,551
2019-09-22T00:06:24,42.805,6.029,CST-1368DR,7925,11099,15385,0.060,551
2019-09-22T00:09:26,42.805,6.029,CST-1368DR,7925,11098,15383,0.060,551
2019-09-22T00:12:27,42.805,6.029,CST-1368DR,7925,11099,15384,0.060,550
2019-09-22T00:15:29,42.805,6.029,CST-1368DR,7925,11097,15382,0.060,551
2019-09-22T00:18:31,42.805,6.029,CST-1368DR,7925,11096,15380,0.061,551
2019-09-22T00:21:32,42.805,6.029,CST-1368DR,7925,11099,15384,0.060,551
2019-09-22T00:24:34,42.805,6.029,CST-1368DR,7925,11098,15383,0.060,551
2019-09-22T00:27:36,42.805,6.029,CST-1368DR,7925,11099,15384,0.060,551
2019-09-22T00:30:38,42.805,6.029,CST-1368DR,7925,11099,15384,0.060,551
2019-09-22T00:33:39,42.805,6.029,CST-1368DR,7925,11099,15384,0.060,551
2019-09-22T00:36:41,42.805,6.029,CST-1368DR,7925,11099,15384,0.060,551
2019-09-22T00:39:42,42.805,6.029,CST-1368DR,7925,11099,15384,0.060,550
2019-09-22T00:42:44,42.805,6.029,CST-1368DR,7925,11099,15384,0.060,550
2019-09-22T00:45:46,42.805,6.029,CST-1368DR,7925,11098,15383,0.060,551
2019-09-22T00:48:47,42.805,6.029,CST-1368DR,7925,11097,15382,0.060,551
2019-09-22T00:51:49,42.805,6.029,CST-1368DR,7924,11099,15386,0.059,551
2019-09-22T00:54:51,42.805,6.029,CST-1368DR,7925,11097,15382,0.060,551
2019-09-22T00:57:52,42.805,6.029,CST-1368DR,7924,11095,15380,0.061,551
2019-09-22T01:00:54,42.805,6.029,CST-1368DR,7925,11098,15382,0.060,551
2019-09-22T01:03:56,42.805,6.029,CST-1368DR,7925,11096,15380,0.061,551
2019-09-22T01:06:57,42.805,6.029,CST-1368DR,7925,11098,15383,0.060,550
2019-09-22T01:09:59,42.805,6.029,CST-1368DR,7924,11097,15383,0.060,551
2019-09-22T01:13:00,42.805,6.029,CST-1368DR,7924,11097,15383,0.060,551
2019-09-22T01:16:02,42.805,6.029,CST-1368DR,7924,11099,15386,0.059,551
2019-09-22T01:19:04,42.805,6.029,CST-1368DR,7924,11098,15385,0.060,551
2019-09-22T01:22:05,42.805,6.029,CST-1368DR,7924,11098,15385,0.060,551
2019-09-22T01:25:07,42.805,6.029,CST-1368DR,7924,11098,15384,0.060,551
2019-09-22T01:28:09,42.805,6.029,CST-1368DR,7924,11099,15386,0.059,551
2019-09-22T01:31:10,42.805,6.029,CST-1368DR,7924,11099,15386,0.059,551
2019-09-22T01:34:12,42.805,6.029,CST-1368DR,7924,11098,15384,0.060,551
2019-09-22T01:37:13,42.805,6.029,CST-1368DR,7924,11099,15387,0.059,551
2019-09-22T01:40:15,42.805,6.029,CST-1368DR,7924,11098,15384,0.060,551
2019-09-22T01:43:17,42.805,6.029,CST-1368DR,7924,11099,15386,0.059,551
2019-09-22T01:46:19,42.805,6.029,CST-1368DR,7924,11098,15384,0.060,551
2019-09-22T01:49:20,42.805,6.029,CST-1368DR,7924,11097,15383,0.060,551
2019-09-22T01:52:22,42.805,6.029,CST-1368DR,7924,11097,15383,0.060,551
2019-09-22T01:55:24,42.805,6.029,CST-1368DR,7924,11099,15386,0.059,551
2019-09-22T01:58:25,42.805,6.029,CST-1368DR,7924,11096,15382,0.060,551
2019-09-22T02:01:27,42.805,6.029,CST-1368DR,7924,11099,15386,0.059,551
2019-09-22T02:04:28,42.805,6.029,CST-1368DR,7924,11098,15385,0.060,551
2019-09-22T02:07:30,42.805,6.029,CST-1368DR,7924,11098,15385,0.060,551
2019-09-22T02:10:32,42.805,6.029,CST-1368DR,7924,11098,15385,0.060,550
2019-09-22T02:13:33,42.805,6.029,CST-1368DR,7924,11094,15380,0.061,551
2019-09-22T02:16:35,42.805,6.029,CST-1368DR,7924,11100,15387,0.059,550
2019-09-22T02:19:37,42.805,6.029,CST-1368DR,7924,11097,15384,0.060,551
2019-09-22T02:22:38,42.805,6.029,CST-1368DR,7924,11099,15386,0.059,551
2019-09-22T02:25:40,42.805,6.029,CST-1368DR,7924,11099,15387,0.059,551
2019-09-22T02:28:42,42.805,6.029,CST-1368DR,7924,11098,15385,0.060,551
2019-09-22T02:31:44,42.805,6.029,CST-1368DR,7924,11096,15381,0.061,551
2019-09-22T02:34:45,42.805,6.029,CST-1368DR,7924,11098,15385,0.060,551
2019-09-22T02:37:47,42.805,6.029,CST-1368DR,7924,11096,15382,0.060,551
2019-09-22T02:40:49,42.805,6.029,CST-1368DR,7924,11095,15381,0.061,550
2019-09-22T02:43:50,42.805,6.029,CST-1368DR,7924,11095,15381,0.061,551
2019-09-22T02:46:52,42.805,6.029,CST-1368DR,7924,11097,15383,0.060,551
2019-09-22T02:49:53,42.805,6.029,CST-1368DR,7924,11098,15385,0.060,551
2019-09-22T02:52:55,42.805,6.029,CST-1368DR,7924,11097,15384,0.060,551
2019-09-22T02:55:57,42.805,6.029,CST-1368DR,7924,11097,15383,0.060,551
2019-09-22T02:58:58,42.805,6.029,CST-1368DR,7924,11097,15384,0.060,551
2019-09-22T03:02:00,42.805,6.029,CST-1368DR,7924,11094,15379,0.061,551
2019-09-22T03:05:02,42.805,6.029,CST-1368DR,7924,11097,15383,0.060,550
2019-09-22T03:08:03,42.805,6.029,CST-1368DR,7924,11095,15381,0.061,551
2019-09-22T03:11:05,42.805,6.029,CST-1368DR,7924,11090,15374,0.062,551
2019-09-22T03:14:07,42.805,6.029,CST-1368DR,7924,11095,15381,0.061,551
2019-09-22T03:17:08,42.805,6.029,CST-1368DR,7924,11098,15384,0.060,551
2019-09-22T03:20:10,42.805,6.029,CST-1368DR,7923,11089,15374,0.062,551
2019-09-22T03:23:11,42.805,6.029,CST-1368DR,7924,11093,15378,0.061,551
2019-09-22T03:26:13,42.805,6.029,CST-1368DR,7924,11097,15384,0.060,551
2019-09-22T03:29:15,42.805,6.029,CST-1368DR,7923,11098,15387,0.059,551
2019-09-22T03:32:16,42.805,6.029,CST-1368DR,7923,11095,15383,0.060,551
2019-09-22T03:35:18,42.805,6.029,CST-1368DR,7923,11097,15385,0.060,551
2019-09-22T03:38:20,42.805,6.029,CST-1368DR,7923,11098,15387,0.059,551
2019-09-22T03:41:21,42.805,6.029,CST-1368DR,7923,11097,15385,0.060,551
2019-09-22T03:44:23,42.805,6.029,CST-1368DR,7923,11095,15382,0.060,550
2019-09-22T03:47:25,42.805,6.029,CST-1368DR,7923,11097,15385,0.060,551
2019-09-22T03:50:26,42.805,6.029,CST-1368DR,7923,11098,15386,0.059,551
2019-09-22T03:53:28,42.805,6.029,CST-1368DR,7923,11096,15384,0.060,551
2019-09-22T03:56:30,42.805,6.029,CST-1368DR,7923,11098,15387,0.059,550
2019-09-22T03:59:31,42.805,6.029,CST-1368DR,7923,11096,15383,0.060,551
2019-09-22T04:02:33,42.805,6.029,CST-1368DR,7923,11096,15383,0.060,550
2019-09-22T04:05:35,42.805,6.029,CST-1368DR,7923,11097,15385,0.060,551
2019-09-22T04:08:36,42.805,6.029,CST-1368DR,7923,11095,15382,0.060,551
2019-09-22T04:11:38,42.805,6.029,CST-1368DR,7923,11094,15381,0.061,551
2019-09-22T04:14:40,42.805,6.029,CST-1368DR,7923,11096,15384,0.060,551
2019-09-22T04:17:41,42.805,6.029,CST-1368DR,7923,11097,15385,0.060,551
2019-09-22T04:20:43,42.805,6.029,CST-1368DR,7923,11095,15383,0.060,551
2019-09-22T04:23:44,42.805,6.029,CST-1368DR,7923,11097,15385,0.060,551
2019-09-22T04:26:46,42.805,6.029,CST-1368DR,7923,11094,15381,0.061,551
2019-09-22T04:29:48,42.805,6.029,CST-1368DR,7923,11098,15386,0.059,550
2019-09-22T04:32:49,42.805,6.029,CST-1368DR,7923,11094,15381,0.061,551
2019-09-22T04:35:51,42.805,6.029,CST-1368DR,7923,11096,15384,0.060,550
2019-09-22T04:38:53,42.805,6.029,CST-1368DR,7923,11095,15383,0.060,551
2019-09-22T04:41:54,42.805,6.029,CST-1368DR,7923,11094,15381,0.061,551
2019-09-22T04:44:56,42.805,6.029,CST-1368DR,7923,11092,15379,0.061,551
2019-09-22T04:47:58,42.805,6.029,CST-1368DR,7923,11092,15378,0.061,551
2019-09-22T04:50:59,42.805,6.029,CST-1368DR,7923,11093,15380,0.061,551
2019-09-22T04:54:01,42.805,6.029,CST-1368DR,7923,11095,15382,0.060,551
2019-09-22T04:57:02,42.805,6.029,CST-1368DR,7923,11096,15383,0.060,551
2019-09-22T05:00:04,42.805,6.029,CST-1368DR,7923,11097,15385,0.060,551
2019-09-22T05:03:06,42.805,6.029,CST-1368DR,7923,11096,15383,0.060,551
2019-09-22T05:06:07,42.805,6.029,CST-1368DR,7923,11096,15384,0.060,551
2019-09-22T05:09:09,42.805,6.029,CST-1368DR,7923,11095,15383,0.060,551
2019-09-22T05:12:11,42.805,6.029,CST-1368DR,7923,11096,15383,0.060,551
2019-09-22T05:15:12,42.805,6.029,CST-1368DR,7923,11096,15383,0.060,551
2019-09-22T05:18:14,42.805,6.029,CST-1368DR,7923,11097,15385,0.060,551
2019-09-22T05:21:16,42.805,6.029,CST-1368DR,7923,11094,15381,0.061,551
2019-09-22T05:24:17,42.805,6.029,CST-1368DR,7923,11097,15385,0.060,551
2019-09-22T05:27:19,42.805,6.029,CST-1368DR,7923,11095,15382,0.060,551
2019-09-22T05:30:21,42.805,6.029,CST-1368DR,7923,11095,15382,0.060,551
2019-09-22T05:33:22,42.805,6.029,CST-1368DR,7923,11097,15385,0.060,551
2019-09-22T05:36:24,42.805,6.029,CST-1368DR,7923,11094,15381,0.061,551
2019-09-22T05:39:25,42.805,6.029,CST-1368DR,7923,11096,15384,0.060,551
2019-09-22T05:42:27,42.805,6.029,CST-1368DR,7922,11093,15382,0.060,551
2019-09-22T05:45:29,42.805,6.029,CST-1368DR,7922,11095,15384,0.060,550
2019-09-22T05:48:30,42.805,6.029,CST-1368DR,7922,11093,15382,0.060,551
2019-09-22T05:51:32,42.805,6.029,CST-1368DR,7922,11092,15380,0.061,550
2019-09-22T05:54:34,42.805,6.029,CST-1368DR,7922,11096,15385,0.060,551
2019-09-22T05:57:35,42.805,6.029,CST-1368DR,7922,11091,15379,0.061,551
2019-09-22T06:00:37,42.805,6.029,CST-1368DR,7922,11094,15383,0.060,551
2019-09-22T06:03:39,42.805,6.029,CST-1368DR,7922,11096,15385,0.060,551
2019-09-22T06:06:40,42.805,6.029,CST-1368DR,7922,11093,15381,0.061,551
2019-09-22T06:09:42,42.805,6.029,CST-1368DR,7922,11094,15382,0.060,551
2019-09-22T06:12:43,42.805,6.029,CST-1368DR,7922,11092,15379,0.061,551
2019-09-22T06:15:45,42.805,6.029,CST-1368DR,7922,11094,15383,0.060,551
2019-09-22T06:18:47,42.805,6.029,CST-1368DR,7922,11094,15383,0.060,551
2019-09-22T06:21:48,42.805,6.029,CST-1368DR,7922,11093,15381,0.061,551
2019-09-22T06:24:50,42.805,6.029,CST-1368DR,7922,11088,15374,0.062,551
2019-09-22T06:27:52,42.805,6.029,CST-1368DR,7922,11094,15383,0.060,551
2019-09-22T06:30:53,42.805,6.029,CST-1368DR,7922,11092,15380,0.061,551
2019-09-22T06:33:55,42.805,6.029,CST-1368DR,7922,11091,15378,0.061,551
2019-09-22T06:36:57,42.805,6.029,CST-1368DR,7922,11093,15381,0.061,551
2019-09-22T06:39:58,42.805,6.029,CST-1368DR,7922,11091,15379,0.061,551
2019-09-22T06:43:00,42.805,6.029,CST-1368DR,7922,11093,15382,0.060,551
2019-09-22T06:46:01,42.805,6.029,CST-1368DR,7922,11094,15383,0.060,551
2019-09-22T06:49:03,42.805,6.029,CST-1368DR,7922,11094,15383,0.060,551
2019-09-22T06:52:05,42.805,6.029,CST-1368DR,7922,11095,15384,0.060,551
2019-09-22T06:55:06,42.805,6.029,CST-1368DR,7922,11095,15384,0.060,551
2019-09-22T06:58:08,42.805,6.029,CST-1368DR,7922,11094,15383,0.060,551
2019-09-22T07:01:10,42.805,6.029,CST-1368DR,7922,11093,15382,0.060,550
2019-09-22T07:04:12,42.805,6.029,CST-1368DR,7922,11094,15383,0.060,551
2019-09-22T07:07:13,42.805,6.029,CST-1368DR,7922,11093,15381,0.061,551
2019-09-22T07:10:15,42.805,6.029,CST-1368DR,7922,11093,15381,0.061,551
2019-09-22T07:13:17,42.805,6.029,CST-1368DR,7922,11082,15366,0.065,551
2019-09-22T07:16:18,42.805,6.029,CST-1368DR,7922,11091,15378,0.061,551
2019-09-22T07:19:20,42.805,6.029,CST-1368DR,7922,11095,15385,0.060,551
2019-09-22T07:22:21,42.805,6.029,CST-1368DR,7922,11088,15374,0.062,551
2019-09-22T07:25:23,42.805,6.029,CST-1368DR,7922,11093,15382,0.060,551
2019-09-22T07:28:25,42.805,6.029,CST-1368DR,7922,11094,15383,0.060,551
2019-09-22T07:31:27,42.805,6.029,CST-1368DR,7922,11095,15384,0.060,551
2019-09-22T07:34:29,42.805,6.029,CST-1368DR,7922,11090,15378,0.061,551
2019-09-22T07:37:30,42.805,6.029,CST-1368DR,7922,11092,15380,0.061,551
2019-09-22T07:40:32,42.805,6.029,CST-1368DR,7922,11092,15380,0.061,551
2019-09-22T07:43:33,42.805,6.029,CST-1368DR,7922,11089,15376,0.062,551
2019-09-22T07:46:35,42.805,6.029,CST-1368DR,7922,11093,15381,0.061,551
2019-09-22T07:49:37,42.805,6.029,CST-1368DR,7922,11093,15381,0.061,551
2019-09-22T07:52:38,42.805,6.029,CST-1368DR,7922,11093,15382,0.060,550
2019-09-22T07:55:40,42.805,6.029,CST-1368DR,7921,11092,15382,0.060,551
2019-09-22T07:58:42,42.805,6.029,CST-1368DR,7921,11094,15384,0.060,551
2019-09-22T08:01:43,42.805,6.029,CST-1368DR,7921,11092,15382,0.060,550
2019-09-22T08:04:45,42.805,6.029,CST-1368DR,7921,11093,15384,0.060,551
2019-09-22T08:07:47,42.805,6.029,CST-1368DR,7921,11094,15384,0.060,551
2019-09-22T08:10:48,42.805,6.029,CST-1368DR,7921,11094,15384,0.060,551
2019-09-22T08:13:50,42.805,6.029,CST-1368DR,7921,11094,15385,0.060,551
2019-09-22T08:16:52,42.805,6.029,CST-1368DR,7921,11092,15382,0.060,551
2019-09-22T08:19:53,42.805,6.029,CST-1368DR,7921,11092,15382,0.060,551
2019-09-22T08:22:55,42.805,6.029,CST-1368DR,7921,11093,15384,0.060,551
2019-09-22T08:25:56,42.805,6.029,CST-1368DR,7921,11092,15382,0.060,551
2019-09-22T08:28:58,42.805,6.029,CST-1368DR,7921,11092,15381,0.061,551
2019-09-22T08:32:00,42.805,6.029,CST-1368DR,7921,11093,15384,0.060,551
2019-09-22T08:35:01,42.805,6.029,CST-1368DR,7921,11091,15381,0.061,550
2019-09-22T08:38:03,42.805,6.029,CST-1368DR,7921,11090,15379,0.061,551
2019-09-22T08:41:05,42.805,6.029,CST-1368DR,7921,11091,15380,0.061,551
2019-09-22T08:44:06,42.805,6.029,CST-1368DR,7921,11093,15383,0.060,550
2019-09-22T08:47:08,42.805,6.029,CST-1368DR,7921,11093,15384,0.060,551
2019-09-22T08:50:10,42.805,6.029,CST-1368DR,7921,11094,15384,0.060,551
2019-09-22T08:53:11,42.805,6.029,CST-1368DR,7921,11094,15384,0.060,551
2019-09-22T08:56:13,42.805,6.029,CST-1368DR,7921,11092,15381,0.061,551
2019-09-22T08:59:14,42.805,6.029,CST-1368DR,7921,11092,15382,0.060,551
2019-09-22T09:02:16,42.805,6.029,CST-1368DR,7921,11094,15385,0.060,551
2019-09-22T09:05:18,42.805,6.029,CST-1368DR,7921,11093,15384,0.060,551
2019-09-22T09:08:19,42.805,6.029,CST-1368DR,7921,11092,15382,0.060,551
2019-09-22T09:11:21,42.805,6.029,CST-1368DR,7921,11092,15382,0.060,551
2019-09-22T09:14:23,42.805,6.029,CST-1368DR,7921,11089,15378,0.061,551
2019-09-22T09:17:24,42.805,6.029,CST-1368DR,7921,11093,15383,0.060,551
2019-09-22T09:20:26,42.805,6.029,CST-1368DR,7921,11092,15382,0.060,551
2019-09-22T09:23:28,42.805,6.029,CST-1368DR,7921,11091,15380,0.061,551
2019-09-22T09:26:29,42.805,6.029,CST-1368DR,7921,11092,15382,0.060,550
2019-09-22T09:29:31,42.805,6.029,CST-1368DR,7921,11092,15382,0.060,551
2019-09-22T09:32:33,42.805,6.029,CST-1368DR,7921,11092,15382,0.060,551
2019-09-22T09:35:34,42.805,6.029,CST-1368DR,7921,11092,15382,0.060,551
2019-09-22T09:38:36,42.805,6.029,CST-1368DR,7921,11090,15379,0.061,551
2019-09-22T09:41:38,42.805,6.029,CST-1368DR,7921,11093,15383,0.060,551
2019-09-22T09:44:39,42.805,6.029,CST-1368DR,7921,11091,15380,0.061,551
2019-09-22T09:47:41,42.805,6.029,CST-1368DR,7921,11092,15382,0.060,551
2019-09-22T09:50:43,42.805,6.029,CST-1368DR,7921,11093,15383,0.060,551
2019-09-22T09:53:44,42.805,6.029,CST-1368DR,7921,11093,15383,0.060,551
2019-09-22T09:56:46,42.805,6.029,CST-1368DR,7921,11088,15376,0.062,551
2019-09-22T09:59:48,42.805,6.029,CST-1368DR,7921,11090,15379,0.061,551
2019-09-22T10:02:49,42.805,6.029,CST-1368DR,7921,11091,15381,0.061,551
2019-09-22T10:05:51,42.805,6.029,CST-1368DR,7921,11088,15377,0.062,551
2019-09-22T10:08:52,42.805,6.029,CST-1368DR,7921,11092,15381,0.061,551
2019-09-22T10:11:54,42.805,6.029,CST-1368DR,7921,11089,15378,0.061,551
2019-09-22T10:14:56,42.805,6.029,CST-1368DR,7921,11092,15381,0.061,551
2019-09-22T10:17:57,42.805,6.029,CST-1368DR,7921,11091,15380,0.061,551
2019-09-22T10:20:59,42.805,6.029,CST-1368DR,7921,11093,15383,0.060,551
2019-09-22T10:24:01,42.805,6.029,CST-1368DR,7921,11092,15382,0.060,551
2019-09-22T10:27:02,42.805,6.029,CST-1368DR,7921,11090,15379,0.061,551
2019-09-22T10:30:04,42.805,6.029,CST-1368DR,7921,11091,15380,0.061,551
2019-09-22T10:33:06,42.805,6.029,CST-1368DR,7921,11091,15380,0.061,551
2019-09-22T10:36:07,42.805,6.029,CST-1368DR,7921,11089,15378,0.061,551
2019-09-22T10:39:09,42.805,6.029,CST-1368DR,7921,11092,15382,0.060,551
2019-09-22T10:42:11,42.805,6.029,CST-1368DR,7921,11090,15379,0.061,551
2019-09-22T10:45:12,42.805,6.029,CST-1368DR,7921,11088,15376,0.062,551
2019-09-22T10:48:14,42.805,6.029,CST-1368DR,7921,11090,15379,0.061,551
2019-09-22T10:51:16,42.805,6.029,CST-1368DR,7921,11091,15380,0.061,551
2019-09-22T10:54:17,42.805,6.029,CST-1368DR,7921,11091,15381,0.061,551
2019-09-22T10:57:19,42.805,6.029,CST-1368DR,7920,11091,15382,0.060,551
2019-09-22T11:00:21,42.805,6.029,CST-1368DR,7920,11091,15382,0.060,551
2019-09-22T11:03:22,42.805,6.029,CST-1368DR,7920,11090,15381,0.061,551
2019-09-22T11:06:24,42.805,6.029,CST-1368DR,7920,11091,15382,0.060,551
2019-09-22T11:09:26,42.805,6.029,CST-1368DR,7921,11092,15381,0.061,551
2019-09-22T11:12:27,42.805,6.029,CST-1368DR,7920,11090,15381,0.061,551
2019-09-22T11:15:29,42.805,6.029,CST-1368DR,7920,11092,15383,0.060,551
2019-09-22T11:18:30,42.805,6.029,CST-1368DR,7920,11091,15383,0.060,551
2019-09-22T11:21:32,42.805,6.029,CST-1368DR,7920,11088,15378,0.061,551
2019-09-22T11:24:34,42.805,6.029,CST-1368DR,7920,11091,15382,0.060,551
2019-09-22T11:27:35,42.805,6.029,CST-1368DR,7920,11091,15382,0.060,551
2019-09-22T11:30:37,42.805,6.029,CST-1368DR,7920,11090,15381,0.061,551
2019-09-22T11:33:39,42.805,6.029,CST-1368DR,7920,11090,15381,0.061,551
2019-09-22T11:36:40,42.805,6.029,CST-1368DR,7920,11090,15381,0.061,551
2019-09-22T11:39:42,42.805,6.029,CST-1368DR,7920,11090,15381,0.061,551
2019-09-22T11:42:44,42.805,6.029,CST-1368DR,7920,11091,15383,0.060,550
2019-09-22T11:45:45,42.805,6.029,CST-1368DR,7920,11089,15380,0.061,551
2019-09-22T11:48:47,42.805,6.029,CST-1368DR,7920,11092,15383,0.060,551
2019-09-22T11:51:49,42.805,6.029,CST-1368DR,7920,11092,15383,0.060,551
2019-09-22T11:54:50,42.805,6.029,CST-1368DR,7920,11081,15368,0.064,551
2019-09-22T11:57:52,42.805,6.029,CST-1368DR,7920,11091,15383,0.060,551
2019-09-22T12:00:54,42.805,6.029,CST-1368DR,7920,11091,15382,0.060,551
2019-09-22T12:03:55,42.805,6.029,CST-1368DR,7920,11092,15383,0.060,551
2019-09-22T12:06:57,42.805,6.029,CST-1368DR,7920,11091,15382,0.060,551
2019-09-22T12:09:58,42.805,6.029,CST-1368DR,7920,11088,15377,0.062,551
2019-09-22T12:13:00,42.805,6.029,CST-1368DR,7920,11090,15381,0.061,551
2019-09-22T12:16:02,42.805,6.029,CST-1368DR,7920,11090,15381,0.061,551
2019-09-22T12:19:03,42.805,6.029,CST-1368DR,7920,11091,15382,0.060,551
2019-09-22T12:22:05,42.805,6.029,CST-1368DR,7920,11091,15382,0.060,551
2019-09-22T12:25:07,42.805,6.029,CST-1368DR,7920,11091,15382,0.060,551
2019-09-22T12:28:08,42.805,6.029,CST-1368DR,7920,11090,15381,0.061,551
2019-09-22T12:31:10,42.805,6.029,CST-1368DR,7920,11091,15382,0.060,551
2019-09-22T12:34:12,42.805,6.029,CST-1368DR,7920,11089,15379,0.061,550
2019-09-22T12:37:13,42.805,6.029,CST-1368DR,7920,11090,15381,0.061,551
2019-09-22T12:40:15,42.805,6.029,CST-1368DR,7920,11089,15379,0.061,551
2019-09-22T12:43:17,42.805,6.029,CST-1368DR,7920,11088,15377,0.062,551
2019-09-22T12:46:19,42.805,6.029,CST-1368DR,7920,11088,15378,0.061,551
2019-09-22T12:49:20,42.805,6.029,CST-1368DR,7920,11090,15381,0.061,551
2019-09-22T12:52:22,42.805,6.029,CST-1368DR,7920,11088,15378,0.061,551
2019-09-22T12:55:23,42.805,6.029,CST-1368DR,7920,11087,15377,0.062,551
2019-09-22T12:58:26,42.805,6.029,CST-1368DR,7920,11089,15379,0.061,551
2019-09-22T13:01:28,42.805,6.029,CST-1368DR,7920,11090,15381,0.061,551
2019-09-22T13:04:29,42.805,6.029,CST-1368DR,7920,11090,15381,0.061,551
2019-09-22T13:07:31,42.805,6.029,CST-1368DR,7920,11089,15380,0.061,551
2019-09-22T13:10:33,42.805,6.029,CST-1368DR,7920,11090,15381,0.061,551
2019-09-22T13:13:34,42.805,6.029,CST-1368DR,7920,11084,15372,0.063,551
2019-09-22T13:16:36,42.805,6.029,CST-1368DR,7920,11089,15379,0.061,551
2019-09-22T13:19:37,42.805,6.029,CST-1368DR,7920,11088,15378,0.061,551
2019-09-22T13:22:39,42.805,6.029,CST-1368DR,7920,11090,15381,0.061,551
2019-09-22T13:25:41,42.805,6.029,CST-1368DR,7920,11091,15382,0.060,551
2019-09-22T13:28:42,42.805,6.029,CST-1368DR,7920,11089,15380,0.061,551
2019-09-22T13:31:44,42.805,6.029,CST-1368DR,7919,11090,15383,0.060,551
2019-09-22T13:34:46,42.805,6.029,CST-1368DR,7920,11087,15377,0.062,551
2019-09-22T13:37:47,42.805,6.029,CST-1368DR,7919,11082,15371,0.063,551
2019-09-22T13:40:49,42.805,6.029,CST-1368DR,7919,11090,15382,0.060,551
2019-09-22T13:43:51,42.805,6.029,CST-1368DR,7919,11091,15384,0.060,551
2019-09-22T13:46:52,42.805,6.029,CST-1368DR,7920,11088,15377,0.062,551
2019-09-22T13:49:54,42.805,6.029,CST-1368DR,7919,11090,15382,0.060,551
2019-09-22T13:52:56,42.805,6.029,CST-1368DR,7919,11089,15381,0.061,551
2019-09-22T13:55:57,42.805,6.029,CST-1368DR,7919,11089,15382,0.060,551
2019-09-22T13:58:59,42.805,6.029,CST-1368DR,7919,11086,15376,0.062,551
2019-09-22T14:02:00,42.805,6.029,CST-1368DR,7919,11089,15381,0.061,551
2019-09-22T14:05:02,42.805,6.029,CST-1368DR,7919,11082,15371,0.063,551
2019-09-22T14:08:04,42.805,6.029,CST-1368DR,7919,11087,15379,0.061,551
2019-09-22T14:11:06,42.805,6.029,CST-1368DR,7919,11089,15381,0.061,551
2019-09-22T14:14:07,42.805,6.029,CST-1368DR,7919,11088,15380,0.061,551
2019-09-22T14:17:09,42.805,6.029,CST-1368DR,7919,11090,15383,0.060,551
2019-09-22T14:20:11,42.805,6.029,CST-1368DR,7919,11089,15382,0.060,551
2019-09-22T14:23:12,42.805,6.029,CST-1368DR,7919,11089,15382,0.060,551
2019-09-22T14:26:14,42.805,6.029,CST-1368DR,7919,11090,15383,0.060,551
2019-09-22T14:29:15,42.805,6.029,CST-1368DR,7919,11089,15381,0.061,551
2019-09-22T14:32:17,42.805,6.029,CST-1368DR,7919,11087,15378,0.061,551
2019-09-22T14:35:19,42.805,6.029,CST-1368DR,7919,11089,15381,0.061,551
2019-09-22T14:38:20,42.805,6.029,CST-1368DR,7919,11090,15383,0.060,551
2019-09-22T14:41:22,42.805,6.029,CST-1368DR,7919,11089,15381,0.061,551
2019-09-22T14:44:24,42.805,6.029,CST-1368DR,7919,11086,15377,0.062,551
2019-09-22T14:47:25,42.805,6.029,CST-1368DR,7919,11087,15379,0.061,551
2019-09-22T14:50:27,42.805,6.029,CST-1368DR,7919,11075,15362,0.066,550
2019-09-22T14:53:29,42.805,6.029,CST-1368DR,7919,11088,15380,0.061,551
2019-09-22T14:56:30,42.805,6.029,CST-1368DR,7919,11089,15381,0.061,551
2019-09-22T14:59:32,42.805,6.029,CST-1368DR,7919,11088,15380,0.061,551
2019-09-22T15:02:33,42.805,6.029,CST-1368DR,7919,11087,15379,0.061,551
2019-09-22T15:05:35,42.805,6.029,CST-1368DR,7919,11088,15379,0.061,551
2019-09-22T15:08:37,42.805,6.029,CST-1368DR,7919,11090,15382,0.060,551
2019-09-22T15:11:38,42.805,6.029,CST-1368DR,7919,11087,15378,0.061,551
2019-09-22T15:14:40,42.805,6.029,CST-1368DR,7919,11088,15380,0.061,551
2019-09-22T15:17:42,42.805,6.029,CST-1368DR,7919,11091,15383,0.060,551
2019-09-22T15:20:43,42.805,6.029,CST-1368DR,7919,11089,15381,0.061,551
2019-09-22T15:23:45,42.805,6.029,CST-1368DR,7919,11089,15381,0.061,551
2019-09-22T15:26:47,42.805,6.029,CST-1368DR,7919,11090,15383,0.060,551
2019-09-22T15:29:48,42.805,6.029,CST-1368DR,7919,11091,15384,0.060,551
2019-09-22T15:32:50,42.805,6.029,CST-1368DR,7919,11083,15373,0.063,551
2019-09-22T15:35:51,42.805,6.029,CST-1368DR,7919,11084,15374,0.062,551
2019-09-22T15:38:53,42.805,6.029,CST-1368DR,7919,11083,15372,0.063,551
2019-09-22T15:41:55,42.805,6.029,CST-1368DR,7919,11088,15380,0.061,551
2019-09-22T15:44:56,42.805,6.029,CST-1368DR,7919,11087,15379,0.061,551
2019-09-22T15:47:58,42.805,6.029,CST-1368DR,7919,11089,15382,0.060,551
2019-09-22T15:51:00,42.805,6.029,CST-1368DR,7919,11089,15381,0.061,551
2019-09-22T15:54:01,42.805,6.029,CST-1368DR,7919,11088,15380,0.061,551
2019-09-22T15:57:03,42.805,6.029,CST-1368DR,7919,11089,15381,0.061,551
2019-09-22T16:00:05,42.805,6.029,CST-1368DR,7919,11087,15378,0.061,551
2019-09-22T16:03:06,42.805,6.029,CST-1368DR,7919,11089,15382,0.060,551
2019-09-22T16:06:08,42.805,6.029,CST-1368DR,7919,11087,15379,0.061,551
2019-09-22T16:09:10,42.805,6.029,CST-1368DR,7918,11088,15382,0.060,551
2019-09-22T16:12:11,42.805,6.029,CST-1368DR,7919,11088,15380,0.061,551
2019-09-22T16:15:13,42.805,6.029,CST-1368DR,7919,11086,15377,0.062,551
2019-09-22T16:18:14,42.805,6.029,CST-1368DR,7918,11083,15375,0.062,550
2019-09-22T16:21:16,42.805,6.029,CST-1368DR,7918,11089,15383,0.060,551
2019-09-22T16:24:18,42.805,6.029,CST-1368DR,7918,11087,15381,0.061,551
2019-09-22T16:27:19,42.805,6.029,CST-1368DR,7918,11088,15381,0.061,551
2019-09-22T16:30:21,42.805,6.029,CST-1368DR,7918,11087,15380,0.061,551
2019-09-22T16:33:23,42.805,6.029,CST-1368DR,7918,11089,15383,0.060,551
2019-09-22T16:36:24,42.805,6.029,CST-1368DR,7918,11088,15382,0.060,551